User: anonymous   Login
Location: Unspecified
(0.0000°N, 0.0000°E)
Time: 06:37:53
(UTC+00:00)
Language:

TBA - TO BE ASSIGNED - Orbit

View from above orbital plane
View from above orbital plane
View from above satellite
View from above satellite

Ground track
Ground track

The orbit is defined by the following mean orbital elements,

1 67347U          26145.32959595 +.00000000 +00000-0 +55232-3 0 00005
2 67347  43.0004 154.3595 0001374 273.2371  86.8324 15.27594324    05
Epoch (UTC): 25 May 2026 07:54:37
Eccentricity: 0.0001374
inclination: 43.0004°
perigee height: 482 km
apogee height: 484 km
right ascension of ascending node: 154.3595°
argument of perigee: 273.2371°
revolutions per day: 15.27594324
mean anomaly at epoch: 86.8324°

The dashed part of the orbit path shows where the satellite is in the earth's shadow,  

DLR